Regional Weather Roundup
Issued by NWS

Home | Current Version | Previous Version | Graphics & Text | Print | Product List | Glossary On
Versions: 1 2 3 4 5 6 7 8 9 10 11 12 13 14 15 16 17 18 19 20 21 22 23 24 25 26 27 28 29 30 31 32 33 34 35 36 37 38 39 40 41 42 43 44 45 46 47 48 49 50
000
ASUS43 KMKX 281821
RWRWI

WISCONSIN REGIONAL WEATHER ROUNDUP
NATIONAL WEATHER SERVICE MILWAUKEE/SULLIVAN WI
1200 PM CST FRI NOV 28 2014

NOTE: "FAIR" INDICATES FEW OR NO CLOUDS BELOW 12,000 FEET WITH NO
SIGNIFICANT WEATHER AND/OR OBSTRUCTIONS TO VISIBILITY.

WIZ001-002-006>008-014>016-023>028-281900-
NORTHWEST WISCONSIN

CITY           SKY/WX    TMP DP  RH WIND       PRES   REMARKS
SUPERIOR ARPT  LGT SNOW  14   9  80 E3        29.99F
6HR MIN TEMP:   9; 6HR MAX TEMP:  14;

ASHLAND        CLOUDY    13   9  84 NE3       30.02F
6HR MIN TEMP:   8; 6HR MAX TEMP:  13; 6HR PCP:  0.01;

HAYWARD        CLOUDY    14   8  77 SE7       29.96F HAZE    WCI   4
6HR MIN TEMP:   8; 6HR MAX TEMP:  14;

SIREN          LGT SNOW  16  10  78 SE7       29.96F WCI   6
6HR MIN TEMP:  10; 6HR MAX TEMP:  16;

CUMBERLAND     LGT SNOW  16  10  79 SE8       29.94F WCI   5
RICE LAKE      LGT SNOW  16  11  81 SE7       29.98F WCI   6
6HR MIN TEMP:  10; 6HR MAX TEMP:  16;

CHETEK         FLURRIES  16  10  80 E8        29.97F WCI   5
6HR MIN TEMP:   9; 6HR MAX TEMP:  16;

LADYSMITH      CLOUDY    16  11  78 SE8       29.98F WCI   6
6HR MIN TEMP:   9; 6HR MAX TEMP:  16;

EAU CLAIRE     CLOUDY    18  11  74 SE6       29.97F WCI  10
6HR MIN TEMP:  11; 6HR MAX TEMP:  18;

MENOMONIE      CLOUDY    19  12  74 E7        29.97F WCI  10
6HR MIN TEMP:  12; 6HR MAX TEMP:  19;

NEW RICHMOND   CLOUDY    18  11  74 SE8       29.94F WCI   8
6HR MIN TEMP:  12; 6HR MAX TEMP:  18;

OSCEOLA        CLOUDY    18  12  77 SE9       29.98F WCI   7
6HR MIN TEMP:  12; 6HR MAX TEMP:  18;

$$

WIZ003>005-009-010-017-018-281900-
NORTH CENTRAL WISCONSIN

CITY           SKY/WX    TMP DP  RH WIND       PRES   REMARKS
MANITOWISH WTR LGT SNOW  11   9  90 S8        29.95F WCI  -1
6HR MIN TEMP:   4; 6HR MAX TEMP:  11;

ARBOR VITAE    LGT SNOW  14  11  87 SE6       29.95F WCI   5
6HR MIN TEMP:   6; 6HR MAX TEMP:  14;

WOODRUFF       LGT SNOW  14  11  87 SE6       29.95F WCI   5
6HR MIN TEMP:   6; 6HR MAX TEMP:  14;

RHINELANDER    LGT SNOW  12   8  84 SE8       29.96F FOG     WCI   0
6HR MIN TEMP:   5; 6HR MAX TEMP:  11; 6HR PCP:  0.03;

EAGLE RIVER    LGT SNOW  12   7  79 CALM      29.97F
6HR MIN TEMP:   6; 6HR MAX TEMP:  12;

LAND O LAKES   LGT SNOW  13   9  84 S5        29.98F WCI   5
6HR MIN TEMP:   5; 6HR MAX TEMP:  13;

PHILLIPS       LGT SNOW  12   8  85 SE7       29.94F WCI   1
6HR MIN TEMP:   6; 6HR MAX TEMP:  12;

TOMAHAWK       LGT SNOW  13   9  84 CALM      29.98F
6HR MIN TEMP:   5; 6HR MAX TEMP:  13; 6HR PCP:  0.02;

MEDFORD        LGT SNOW  14   9  82 SE9       29.96F WCI   2
6HR MIN TEMP:   7; 6HR MAX TEMP:  14;

MERRILL        LGT SNOW  13   9  84 SE3       29.99F
6HR MIN TEMP:   6; 6HR MAX TEMP:  13;

$$

WIZ029-030-035-036-043>047-281900-
CENTRAL WISCONSIN

CITY           SKY/WX    TMP DP  RH WIND       PRES   REMARKS
WAUSAU         LGT SNOW  14  10  84 SE8       29.98F FOG     WCI   3
6HR MIN TEMP:   7; 6HR MAX TEMP:  14; 6HR PCP:  0.01;

MOSINEE        LGT SNOW  16  12  86 SE10      30.00F WCI   3
MARSHFIELD     CLOUDY    17  11  77 SE9       29.97F WCI   6
6HR MIN TEMP:   9; 6HR MAX TEMP:  17; 6HR PCP: TRACE;

STEVENS POINT  FLURRIES  15  11  84 SE7       30.01F WCI   5
6HR MIN TEMP:   6; 6HR MAX TEMP:  15;

WAUPACA        CLOUDY    20  14  78 E9        30.06F WCI  10
6HR MIN TEMP:  11; 6HR MAX TEMP:  20;

WAUTOMA        CLOUDY    21  14  74 SE8       30.03F WCI  11
6HR MIN TEMP:  11; 6HR MAX TEMP:  21; 6HR PCP: TRACE;

WISC RAPIDS    CLOUDY    18  11  74 SE6       30.02F WCI  10
6HR MIN TEMP:  10; 6HR MAX TEMP:  18; 6HR PCP:  0.01;

CAMP DOUGLAS   MOSUNNY   24  15  70 SE12      29.98F WCI  12
6HR MIN TEMP:  12; 6HR MAX TEMP:  24;

$$

WIZ011>013-019>022-031-037>040-048>050-281900-
NORTHEAST WISCONSIN

CITY           SKY/WX    TMP DP  RH WIND       PRES   REMARKS
ANTIGO         LGT SNOW  11   8  85 SE8       29.99F WCI   0
6HR MIN TEMP:   5; 6HR MAX TEMP:  11;

SHAWANO        CLOUDY    18  13  79 SE7       30.09F WCI   9
6HR MIN TEMP:  10; 6HR MAX TEMP:  18;

OCONTO         CLOUDY    18  15  87 SE5       30.10F WCI  11
6HR MIN TEMP:   8; 6HR MAX TEMP:  18;

STURGEON BAY   CLOUDY    18  12  79 CALM      30.09F
6HR MIN TEMP:  12; 6HR MAX TEMP:  18;

GREEN BAY      CLOUDY    19  14  81 S10       30.09F WCI   7
6HR MIN TEMP:  11; 6HR MAX TEMP:  19; 6HR PCP:  0.05;

MANITOWOC      MIX PCPN  23  19  86 S9        30.09F WCI  13
6HR MIN TEMP:  12; 6HR MAX TEMP:  23; 6HR PCP: TRACE;

APPLETON       CLOUDY    19  14  79 SE12      30.07F WCI   7
CLINTONVILLE   FLURRIES  18  12  79 SE6       30.07F WCI   9
OSHKOSH        CLOUDY    20  14  77 MISG      30.05F
6HR MIN TEMP:  12; 6HR MAX TEMP:  20; 6HR PCP:  0.02;

$$

WIZ032>034-041-042-053>061-281900-
SOUTHWEST WISCONSIN

CITY           SKY/WX    TMP DP  RH WIND       PRES   REMARKS
LA CROSSE      SUNNY     25  14  63 S9        29.98F WCI  15
6HR MIN TEMP:  16; 6HR MAX TEMP:  25;

SPARTA         MOSUNNY   26  14  60 S8        30.00F WCI  17
6HR MIN TEMP:  13; 6HR MAX TEMP:  26;

VIROQUA        SUNNY     24  15  68 S8G17     29.95F WCI  15
6HR MIN TEMP:  12; 6HR MAX TEMP:  24;

BOSCOBEL       SUNNY     26  15  63 S8        30.01F WCI  18
6HR MIN TEMP:  17; 6HR MAX TEMP:  26;

PRAIRIE DU CHI MOSUNNY   26  15  65 SE7       30.00S WCI  18
6HR MIN TEMP:  17; 6HR MAX TEMP:  26;

PLATTEVILLE    PTSUNNY   24  17  74 SE12      29.99F WCI  13
6HR MIN TEMP:  15; 6HR MAX TEMP:  24;

$$

WIZ056-057-062-063-064-067-068-281900-
SOUTH CENTRAL WISCONSIN

CITY           SKY/WX    TMP DP  RH WIND       PRES   REMARKS
REEDSBURG      MOSUNNY   23  14  68 S7        29.99F WCI  15
6HR MIN TEMP:  13; 6HR MAX TEMP:  23;

BARABOO/DELLS  MOSUNNY   23  15  70 S13       29.99F WCI  11
6HR MIN TEMP:  14; 6HR MAX TEMP:  23;

LONE ROCK      PTSUNNY   29  16  58 S8        30.00F WCI  21
6HR MIN TEMP:  18; 6HR MAX TEMP:  28;

MINERAL POINT  SUNNY     27  18  69 SE16      29.97F WCI  14
MADISON        PTSUNNY   23  15  71 S13       30.02F WCI  11
6HR MIN TEMP:  15; 6HR MAX TEMP:  23; 6HR PCP:  0.01;

MIDDLETON      MOSUNNY   27  14  58 S12       30.01F WCI  16
6HR MIN TEMP:  17; 6HR MAX TEMP:  27;

WATERTOWN      CLOUDY    23  15  72 SE12      30.03F WCI  11
6HR MIN TEMP:  14; 6HR MAX TEMP:  23;

MONROE         SUNNY     25  19  80 S15G24    29.99F WCI  12
JANESVILLE     MOSUNNY   27  16  63 SE13      30.05F WCI  16
$$

WIZ051-052-058>065-066-070>072-281900-
SOUTHEAST WISCONSIN

CITY           SKY/WX    TMP DP  RH WIND       PRES   REMARKS
MILWAUKEE      CLOUDY    25  12  58 S10       30.09F WCI  15
6HR MIN TEMP:  16; 6HR MAX TEMP:  25; 6HR PCP:  0.02;

WAUKESHA       CLOUDY    21  12  68 SE13      30.08F WCI   9
MILWAUKEE/TIMM CLOUDY    23  12  63 SE7       30.10F WCI  15
RACINE         CLOUDY    27  18  69 S14G23    30.11F WCI  16
6HR MIN TEMP:  18; 6HR MAX TEMP:  27; 6HR PCP: TRACE;

BURLINGTON     PTSUNNY   23  15  71 S10       30.06F WCI  12
6HR MIN TEMP:  15; 6HR MAX TEMP:  23;

KENOSHA        CLOUDY    25  15  66 SE12      30.09F WCI  14
6HR MIN TEMP:  18; 6HR MAX TEMP:  25; 6HR PCP:  0.01;

FOND DU LAC    CLOUDY    21  14  74 SE10      30.05F WCI  10
6HR MIN TEMP:  13; 6HR MAX TEMP:  21; 6HR PCP: TRACE;

SHEBOYGAN      CLOUDY    22  17  81 S12       30.07F WCI  10
6HR MIN TEMP:  12; 6HR MAX TEMP:  22; 6HR PCP:  0.01;

WEST BEND      CLOUDY    23  14  68 SE8       30.06F WCI  14
JUNEAU         CLOUDY    22  15  74 SE16      30.04F WCI   8
6HR MIN TEMP:  12; 6HR MAX TEMP:  22;

$$

LSZ147-162-281900-
LAKE SUPERIOR

STATION/POSITION TIME  TEMP    WIND        PRES    WAVE
                       AIR SEA DIR/SP/G            HT/PER
                 (UTC) (F)     (DEG/KT/KT) (MB)    (FT/S)
DEVILS ISLAND    1800   19     140/  6/ 10 1017.4F
PORT WING        1700   15     140/  3/  6 1017.3
SAXON HARBOR     1700   14        CALM     1017.6
$$

LMZ867-665-643>646-281900-
LAKE MICHIGAN

STATION/POSITION TIME  TEMP    WIND        PRES    WAVE


USA.gov is the U.S. government's official web portal to all federal, state and local government web resources and services.